AAL2134 KIAH-KCLT

Flight info

Callsign AAL2134
Flight time N/A
Altitude 37000
Route STRYA8 DPATY MHZ WINAP JYROD BESTT JONZE5
Aircraft A21N/M-SDE2E3FGHIRWXY/LB1

Departure

Time N/A
Airport George Bush Intercontinental Airport (KIAH)

Arrival

Time 2026-05-05 21:11
Airport Charlotte Douglas International Airport (KCLT)
Time Latitude Longitude Altitude Speed Heading
2026-05-05 19:45 31.83643 -92.27236 36902 ft 527 kts 62°
2026-05-05 19:46 31.86269 -92.19257 36897 ft 526 kts 62°
2026-05-05 19:46 31.88922 -92.11177 36902 ft 526 kts 62°
2026-05-05 19:47 31.91465 -92.03413 36905 ft 526 kts 62°
2026-05-05 19:47 31.94092 -91.95375 36910 ft 526 kts 62°
2026-05-05 19:48 31.96714 -91.87330 37089 ft 527 kts 62°
2026-05-05 19:48 31.98024 -91.83302 37296 ft 526 kts 62°
2026-05-05 19:48 31.99332 -91.79275 37482 ft 526 kts 62°
2026-05-05 19:48 32.00636 -91.75257 37648 ft 525 kts 62°
2026-05-05 19:49 32.01939 -91.71236 37822 ft 525 kts 62°
2026-05-05 19:49 32.03242 -91.67211 37990 ft 525 kts 62°
2026-05-05 19:49 32.04541 -91.63191 38140 ft 525 kts 62°
2026-05-05 19:49 32.05841 -91.59166 38289 ft 525 kts 62°
2026-05-05 19:50 32.07136 -91.55133 38435 ft 527 kts 63°
2026-05-05 19:50 32.09427 -91.46860 38529 ft 533 kts 66°
2026-05-05 19:51 32.11500 -91.38476 38532 ft 532 kts 67°
2026-05-05 19:51 32.13567 -91.30110 38538 ft 531 kts 66°
2026-05-05 19:52 32.15667 -91.21755 38544 ft 531 kts 66°
2026-05-05 19:52 32.17777 -91.13413 38545 ft 531 kts 66°
2026-05-05 19:53 32.19884 -91.05070 38541 ft 530 kts 66°
2026-05-05 19:53 32.21981 -90.96736 38544 ft 530 kts 66°
2026-05-05 19:54 32.24074 -90.88390 38519 ft 530 kts 66°
2026-05-05 19:54 32.26160 -90.80045 38518 ft 530 kts 66°
2026-05-05 19:55 32.28240 -90.71694 38523 ft 529 kts 66°
2026-05-05 19:55 32.30310 -90.63354 38537 ft 529 kts 66°
2026-05-05 19:56 32.32377 -90.55007 38544 ft 529 kts 66°
2026-05-05 19:56 32.34439 -90.46652 38535 ft 529 kts 66°
2026-05-05 19:57 32.36499 -90.38285 38538 ft 531 kts 66°
2026-05-05 19:57 32.38553 -90.29908 38539 ft 530 kts 66°
2026-05-05 19:58 32.40601 -90.21529 38542 ft 530 kts 66°
2026-05-05 19:58 32.42645 -90.13145 38543 ft 530 kts 66°
2026-05-05 19:59 32.44770 -90.04806 38543 ft 528 kts 64°
2026-05-05 19:59 32.47049 -89.96538 38514 ft 527 kts 63°
2026-05-05 20:00 32.49334 -89.88305 38511 ft 526 kts 63°
2026-05-05 20:00 32.51594 -89.80069 38505 ft 526 kts 64°
2026-05-05 20:01 32.53825 -89.71869 38505 ft 526 kts 64°
2026-05-05 20:01 32.56059 -89.63619 38489 ft 526 kts 64°
2026-05-05 20:02 32.58291 -89.55352 38488 ft 526 kts 64°
2026-05-05 20:02 32.60516 -89.47084 38475 ft 526 kts 64°
2026-05-05 20:03 32.62736 -89.38810 38491 ft 527 kts 65°
2026-05-05 20:03 32.64416 -89.30304 38519 ft 535 kts 70°
2026-05-05 20:04 32.65927 -89.21642 38547 ft 536 kts 71°
2026-05-05 20:04 32.67379 -89.12977 38559 ft 535 kts 71°
2026-05-05 20:05 32.68828 -89.04321 38527 ft 535 kts 71°
2026-05-05 20:05 32.70284 -88.95645 38574 ft 535 kts 71°
2026-05-05 20:06 32.71736 -88.86989 38609 ft 535 kts 71°
2026-05-05 20:06 32.73180 -88.78336 38608 ft 534 kts 71°
2026-05-05 20:07 32.74617 -88.69689 38587 ft 533 kts 71°
2026-05-05 20:07 32.76047 -88.61051 38586 ft 533 kts 71°
2026-05-05 20:08 32.77470 -88.52412 38571 ft 533 kts 71°
2026-05-05 20:08 32.78888 -88.43767 38586 ft 532 kts 71°
2026-05-05 20:09 32.80291 -88.35159 38590 ft 531 kts 71°
2026-05-05 20:09 32.81692 -88.26541 38603 ft 531 kts 71°
2026-05-05 20:10 32.83088 -88.17917 38592 ft 531 kts 71°
2026-05-05 20:10 32.84477 -88.09293 38586 ft 531 kts 71°
2026-05-05 20:11 32.85858 -88.00673 38590 ft 530 kts 71°
2026-05-05 20:11 32.87231 -87.92063 38617 ft 529 kts 71°
2026-05-05 20:12 32.88597 -87.83467 38602 ft 530 kts 71°
2026-05-05 20:12 32.89960 -87.74843 38598 ft 530 kts 71°
2026-05-05 20:13 32.91315 -87.66233 38614 ft 529 kts 71°
2026-05-05 20:13 32.92663 -87.57620 38582 ft 529 kts 71°
2026-05-05 20:14 32.94006 -87.49009 38597 ft 529 kts 71°
2026-05-05 20:14 32.95329 -87.40484 38601 ft 529 kts 71°
2026-05-05 20:15 32.96659 -87.31873 38612 ft 529 kts 71°
2026-05-05 20:15 32.97983 -87.23250 38610 ft 528 kts 71°
2026-05-05 20:16 32.99300 -87.14639 38606 ft 528 kts 71°
2026-05-05 20:16 33.00602 -87.06092 38604 ft 528 kts 71°
2026-05-05 20:17 33.01907 -86.97481 38604 ft 528 kts 71°
2026-05-05 20:17 33.03205 -86.88865 38613 ft 527 kts 71°
2026-05-05 20:18 33.04492 -86.80274 38616 ft 526 kts 71°
2026-05-05 20:18 33.05774 -86.71697 38625 ft 526 kts 71°
2026-05-05 20:19 33.07052 -86.63103 38626 ft 526 kts 72°
2026-05-05 20:19 33.08321 -86.54516 38637 ft 526 kts 72°
2026-05-05 20:20 33.09581 -86.45941 38636 ft 524 kts 72°
2026-05-05 20:20 33.10836 -86.37374 38664 ft 524 kts 72°
2026-05-05 20:21 33.12083 -86.28812 38640 ft 524 kts 72°
2026-05-05 20:21 33.13324 -86.20256 38616 ft 524 kts 72°
2026-05-05 20:22 33.14555 -86.11716 38624 ft 522 kts 72°
2026-05-05 20:22 33.15576 -86.04597 38623 ft 522 kts 72°
2026-05-05 20:23 33.16797 -85.96058 38622 ft 522 kts 72°
2026-05-05 20:23 33.18015 -85.87512 38625 ft 521 kts 71°
2026-05-05 20:24 33.19696 -85.79176 38617 ft 514 kts 66°
2026-05-05 20:24 33.21510 -85.70910 38629 ft 515 kts 66°
2026-05-05 20:25 33.23306 -85.62621 38628 ft 516 kts 66°
2026-05-05 20:25 33.25088 -85.54324 38629 ft 516 kts 66°
2026-05-05 20:26 33.26861 -85.46023 38632 ft 515 kts 66°
2026-05-05 20:26 33.28629 -85.37719 38633 ft 515 kts 67°
2026-05-05 20:27 33.30387 -85.29430 38639 ft 514 kts 67°
2026-05-05 20:27 33.32138 -85.21149 38651 ft 514 kts 67°
2026-05-05 20:28 33.33884 -85.12855 38651 ft 514 kts 67°
2026-05-05 20:28 33.35625 -85.04559 38661 ft 514 kts 67°
2026-05-05 20:29 33.37355 -84.96284 38652 ft 512 kts 67°
2026-05-05 20:29 33.39075 -84.88027 38653 ft 512 kts 67°
2026-05-05 20:30 33.40790 -84.79768 38654 ft 511 kts 67°
2026-05-05 20:30 33.42500 -84.71504 38653 ft 511 kts 67°
2026-05-05 20:31 33.44203 -84.63242 38655 ft 511 kts 67°
2026-05-05 20:31 33.45884 -84.55052 38654 ft 509 kts 67°
2026-05-05 20:32 33.47568 -84.46824 38653 ft 509 kts 67°
2026-05-05 20:32 33.49248 -84.38588 38653 ft 509 kts 68°
2026-05-05 20:33 33.50921 -84.30351 38644 ft 509 kts 68°
2026-05-05 20:33 33.52588 -84.22117 38645 ft 508 kts 68°
2026-05-05 20:34 33.54244 -84.13901 38651 ft 507 kts 68°
2026-05-05 20:34 33.55891 -84.05705 38654 ft 505 kts 68°
2026-05-05 20:35 33.57534 -83.97503 38654 ft 505 kts 67°
2026-05-05 20:35 33.59186 -83.89320 38660 ft 503 kts 65°
2026-05-05 20:36 33.61129 -83.81303 38638 ft 499 kts 63°
2026-05-05 20:36 33.63113 -83.73313 38636 ft 499 kts 64°
2026-05-05 20:37 33.65078 -83.65328 38636 ft 499 kts 64°
2026-05-05 20:37 33.67276 -83.57488 38640 ft 484 kts 52°
2026-05-05 20:38 33.70493 -83.50564 38645 ft 476 kts 48°
2026-05-05 20:38 33.73851 -83.43711 38641 ft 476 kts 48°
2026-05-05 20:39 33.77201 -83.36839 38653 ft 476 kts 48°
2026-05-05 20:39 33.80549 -83.29945 38658 ft 478 kts 48°
2026-05-05 20:40 33.83914 -83.23059 38654 ft 476 kts 46°
2026-05-05 20:40 33.87476 -83.16390 38664 ft 472 kts 44°
2026-05-05 20:41 33.91109 -83.09814 38655 ft 472 kts 44°
2026-05-05 20:41 33.94734 -83.03215 38644 ft 472 kts 44°
2026-05-05 20:42 33.98330 -82.96604 38637 ft 472 kts 45°
2026-05-05 20:42 34.01916 -82.89975 38684 ft 472 kts 44°
2026-05-05 20:43 34.05487 -82.83358 38648 ft 471 kts 44°
2026-05-05 20:43 34.09056 -82.76735 38654 ft 470 kts 44°
2026-05-05 20:44 34.12608 -82.70131 38649 ft 468 kts 44°
2026-05-05 20:44 34.16148 -82.63542 38646 ft 468 kts 44°
2026-05-05 20:45 34.21450 -82.53652 38140 ft 467 kts 45°
2026-05-05 20:45 34.23214 -82.50356 37860 ft 467 kts 45°
2026-05-05 20:45 34.24980 -82.47054 37656 ft 467 kts 45°
2026-05-05 20:46 34.26739 -82.43758 37380 ft 466 kts 45°
2026-05-05 20:46 34.28498 -82.40461 37002 ft 466 kts 45°
2026-05-05 20:46 34.30271 -82.37141 35843 ft 476 kts 46°
2026-05-05 20:46 34.32082 -82.33750 34903 ft 482 kts 47°
2026-05-05 20:47 34.33901 -82.30327 34032 ft 486 kts 49°
2026-05-05 20:47 34.35734 -82.26872 32974 ft 490 kts 49°
2026-05-05 20:47 34.37581 -82.23386 31984 ft 493 kts 50°
2026-05-05 20:47 34.39437 -82.19881 30994 ft 496 kts 50°
2026-05-05 20:48 34.41291 -82.16374 30290 ft 493 kts 51°
2026-05-05 20:48 34.43130 -82.12888 29505 ft 490 kts 51°
2026-05-05 20:48 34.44954 -82.09430 28761 ft 485 kts 51°
2026-05-05 20:48 34.46764 -82.05998 28034 ft 481 kts 51°
2026-05-05 20:49 34.48556 -82.02597 27300 ft 477 kts 51°
2026-05-05 20:49 34.50326 -81.99234 26877 ft 467 kts 51°
2026-05-05 20:49 34.52043 -81.95964 26609 ft 453 kts 51°
2026-05-05 20:49 34.53708 -81.92790 26353 ft 440 kts 51°
2026-05-05 20:50 34.55340 -81.89684 25929 ft 433 kts 51°
2026-05-05 20:50 34.56935 -81.86653 25349 ft 431 kts 52°
2026-05-05 20:50 34.58538 -81.83602 24830 ft 427 kts 52°
2026-05-05 20:50 34.60126 -81.80576 24310 ft 424 kts 52°
2026-05-05 20:51 34.61700 -81.77572 23797 ft 420 kts 52°
2026-05-05 20:51 34.63262 -81.74588 23225 ft 417 kts 53°
2026-05-05 20:51 34.64809 -81.71630 22611 ft 414 kts 53°
2026-05-05 20:51 34.66342 -81.68695 22083 ft 409 kts 53°
2026-05-05 20:52 34.67859 -81.65789 21476 ft 406 kts 54°
2026-05-05 20:52 34.69362 -81.62908 20958 ft 401 kts 54°
2026-05-05 20:52 34.70852 -81.60050 20409 ft 399 kts 54°
2026-05-05 20:52 34.72329 -81.57214 19848 ft 395 kts 55°
2026-05-05 20:53 34.73790 -81.54406 19415 ft 389 kts 55°
2026-05-05 20:53 34.75276 -81.51727 19075 ft 372 kts 49°
2026-05-05 20:53 34.76940 -81.49404 18576 ft 358 kts 44°
2026-05-05 20:53 34.78633 -81.47228 17948 ft 351 kts 44°
2026-05-05 20:54 34.80317 -81.45092 17477 ft 349 kts 44°
2026-05-05 20:54 34.81999 -81.42955 17085 ft 350 kts 44°
2026-05-05 20:54 34.83673 -81.40820 16629 ft 348 kts 44°
2026-05-05 20:54 34.85335 -81.38694 16197 ft 344 kts 44°
2026-05-05 20:55 34.86975 -81.36594 15787 ft 341 kts 44°
2026-05-05 20:55 34.88608 -81.34500 15380 ft 340 kts 44°
2026-05-05 20:55 34.90227 -81.32421 14970 ft 338 kts 45°
2026-05-05 20:55 34.91842 -81.30346 14578 ft 336 kts 45°
2026-05-05 20:56 34.93446 -81.28284 14187 ft 334 kts 45°
2026-05-05 20:56 34.95042 -81.26231 13765 ft 334 kts 45°
2026-05-05 20:56 34.96636 -81.24178 13311 ft 333 kts 45°
2026-05-05 20:56 34.98225 -81.22131 12916 ft 331 kts 46°
2026-05-05 20:57 34.99799 -81.20101 12525 ft 329 kts 46°
2026-05-05 20:57 35.01369 -81.18076 12139 ft 328 kts 46°
2026-05-05 20:57 35.02914 -81.16083 11747 ft 326 kts 46°
2026-05-05 20:57 35.04464 -81.14081 11372 ft 324 kts 46°
2026-05-05 20:58 35.06007 -81.12086 10969 ft 322 kts 46°
2026-05-05 20:58 35.07535 -81.10106 10757 ft 320 kts 46°
2026-05-05 20:58 35.09069 -81.08139 10554 ft 320 kts 43°
2026-05-05 20:58 35.10848 -81.06592 10371 ft 313 kts 20°
2026-05-05 20:59 35.12911 -81.06093 10200 ft 295 kts 357°
2026-05-05 20:59 35.14913 -81.06179 10027 ft 282 kts 352°
2026-05-05 20:59 35.16830 -81.06361 9862 ft 270 kts 351°
2026-05-05 20:59 35.18674 -81.06546 9618 ft 263 kts 351°
2026-05-05 21:00 35.20485 -81.06723 9322 ft 259 kts 351°
2026-05-05 21:00 35.22276 -81.06894 9107 ft 257 kts 351°
2026-05-05 21:00 35.24065 -81.07061 8911 ft 257 kts 352°
2026-05-05 21:00 35.25845 -81.07224 8705 ft 257 kts 352°
2026-05-05 21:01 35.27623 -81.07384 8528 ft 254 kts 352°
2026-05-05 21:01 35.29351 -81.07538 8338 ft 247 kts 352°
2026-05-05 21:01 35.31043 -81.07688 8115 ft 243 kts 352°
2026-05-05 21:01 35.32726 -81.07838 7916 ft 243 kts 352°
2026-05-05 21:02 35.34417 -81.07767 7713 ft 246 kts 10°
2026-05-05 21:02 35.35992 -81.06951 7526 ft 247 kts 29°
2026-05-05 21:02 35.37449 -81.05837 7337 ft 247 kts 33°
2026-05-05 21:02 35.38857 -81.04694 7141 ft 245 kts 33°
2026-05-05 21:03 35.40286 -81.03533 6981 ft 240 kts 34°
2026-05-05 21:03 35.41626 -81.02452 6765 ft 231 kts 34°
2026-05-05 21:03 35.42972 -81.01371 6589 ft 232 kts 34°
2026-05-05 21:03 35.44301 -81.00306 6396 ft 232 kts 34°
2026-05-05 21:04 35.45655 -80.99220 6205 ft 233 kts 34°
2026-05-05 21:04 35.46999 -80.98129 6027 ft 229 kts 38°
2026-05-05 21:04 35.47990 -80.96667 5692 ft 220 kts 74°
2026-05-05 21:04 35.48006 -80.94902 5181 ft 203 kts 119°
2026-05-05 21:05 35.47070 -80.93763 4816 ft 188 kts 165°
2026-05-05 21:05 35.45820 -80.93834 4507 ft 183 kts 199°
2026-05-05 21:05 35.44613 -80.94343 4175 ft 183 kts 199°
2026-05-05 21:05 35.43393 -80.94796 3847 ft 183 kts 195°
2026-05-05 21:06 35.42140 -80.95076 3374 ft 183 kts 188°
2026-05-05 21:06 35.40873 -80.95143 2844 ft 181 kts 183°
2026-05-05 21:06 35.39637 -80.95079 2496 ft 173 kts 179°
2026-05-05 21:06 35.38454 -80.94972 2405 ft 171 kts 179°
2026-05-05 21:07 35.37251 -80.94866 2399 ft 175 kts 180°
2026-05-05 21:07 35.36049 -80.94767 2409 ft 171 kts 179°
2026-05-05 21:07 35.34909 -80.94677 2375 ft 158 kts 179°
2026-05-05 21:07 35.33824 -80.94591 2401 ft 155 kts 179°
2026-05-05 21:08 35.32758 -80.94503 2403 ft 148 kts 181°
2026-05-05 21:08 35.32098 -80.94450 2383 ft 139 kts 177°
2026-05-05 21:08 35.31166 -80.94366 2374 ft 131 kts 177°
2026-05-05 21:08 35.30264 -80.94286 2402 ft 129 kts 180°
2026-05-05 21:09 35.29374 -80.94210 2375 ft 128 kts 179°
2026-05-05 21:09 35.28470 -80.94137 2085 ft 131 kts 179°
2026-05-05 21:09 35.27555 -80.94052 1820 ft 131 kts 180°
2026-05-05 21:09 35.26664 -80.93983 1642 ft 126 kts 176°
2026-05-05 21:10 35.25798 -80.93933 1375 ft 127 kts 177°
2026-05-05 21:10 35.24906 -80.93872 1307 ft 130 kts 178°
2026-05-05 21:10 35.24024 -80.93797 1167 ft 125 kts 177°
2026-05-05 21:10 35.23159 -80.93718 917 ft 127 kts 174°
2026-05-05 21:11 35.22268 -80.93610 765 ft 130 kts 174°
2026-05-05 21:11 35.21399 -80.93512 724 ft 110 kts 175°
2026-05-05 21:11 35.20967 -80.93479 722 ft 11 kts 176°
2026-05-05 21:11 35.20951 -80.93477 721 ft 8 kts 176°
2026-05-05 21:12 35.20878 -80.93475 723 ft 12 kts 179°
2026-05-05 21:12 35.20791 -80.93470 721 ft 13 kts 177°
2026-05-05 21:12 35.20691 -80.93466 722 ft 16 kts 179°
2026-05-05 21:12 35.20576 -80.93487 721 ft 18 kts 197°
2026-05-05 21:13 35.20537 -80.93505 719 ft 0 kts 202°
2026-05-05 21:14 35.20534 -80.93507 720 ft 2 kts 203°
2026-05-05 21:14 35.20513 -80.93530 719 ft 6 kts 240°
2026-05-05 21:14 35.20533 -80.93578 720 ft 8 kts 340°
2026-05-05 21:15 35.20605 -80.93590 720 ft 13 kts 355°
2026-05-05 21:15 35.20709 -80.93598 720 ft 17 kts 357°
2026-05-05 21:15 35.20843 -80.93610 723 ft 21 kts 357°
2026-05-05 21:15 35.21006 -80.93622 723 ft 25 kts 355°
2026-05-05 21:16 35.21187 -80.93643 724 ft 29 kts 355°
2026-05-05 21:16 35.21396 -80.93666 728 ft 31 kts 339°
2026-05-05 21:16 35.21529 -80.93822 729 ft 18 kts 288°
2026-05-05 21:16 35.21503 -80.93915 728 ft 8 kts 213°
2026-05-05 21:17 35.21460 -80.93950 727 ft 8 kts 214°
2026-05-05 21:17 35.21409 -80.94006 726 ft 12 kts 225°
2026-05-05 21:17 35.21350 -80.94091 726 ft 15 kts 230°
2026-05-05 21:17 35.21286 -80.94157 726 ft 7 kts 177°
2026-05-05 21:18 35.21254 -80.94127 727 ft 8 kts 137°
2026-05-05 21:18 35.21214 -80.94086 727 ft 6 kts 168°
2026-05-05 21:18 35.21175 -80.94113 727 ft 8 kts 227°
2026-05-05 21:18 35.21163 -80.94130 725 ft 0 kts 226°